Dewpoint
70 70 71 71 71 71 71 71 70 70 70 70 70 69 69 69 68 68 68 68 68 68 67 67 67 67 67 66 66 66 66 67 67 67 67 67 67 67 67 67 67 66 66 66 66 66 65 63 61 60 60 60 60 60 60 61 61 60 59 59 59 59 59 62 63 64 64 64 64 64 63 63 63 63 63 63 62 62 62 63 63 63 63 63 63 63 63 63 64 64 64 64 65 65 66 66 66 66 66 66 66 67 67
70 71 71 71 71 71 71 71 70 70 70 70 69 69 69 68 68 68 68 68 68 68 67 67 67 66 66 66 66 66 66 67 67 67 67 67 67 67 67 67 67 66 66 66 66 65 65 62 61 60 60 60 60 60 60 60 60 59 59 59 59 60 61 62 63 63 63 63 63 63 63 63 63 63 62 62 62 62 61 62 62 63 63 63 63 63 63 63 63 63 63 63 63 64 64 64 65 65 65 66 66 66 66
71 71 71 71 71 71 71 70 70 70 70 69 69 69 69 68 68 68 68 68 68 68 67 67 66 66 66 66 66 66 66 66 66 67 67 67 67 67 67 67 66 66 66 66 66 65 64 62 61 60 60 60 60 60 60 60 59 59 59 59 59 60 61 63 63 63 63 63 63 62 62 62 62 62 62 62 61 61 61 61 61 62 62 63 62 62 62 62 62 62 62 62 62 62 62 63 63 64 64 65 65 65 66
71 71 71 71 71 71 70 70 70 70 69 69 69 68 68 68 68 68 68 68 68 67 67 67 66 66 66 66 66 66 66 66 66 66 66 66 67 67 67 66 66 66 66 66 65 65 63 62 61 60 60 60 60 60 60 60 60 59 59 60 61 61 63 63 63 63 63 63 63 63 62 62 62 61 61 61 61 60 60 61 61 61 61 62 62 62 61 61 61 61 61 62 61 61 61 62 63 63 64 64 64 64 65
70 71 71 71 71 70 70 70 69 69 69 68 68 68 68 68 68 68 68 68 67 67 66 66 66 66 66 66 66 66 66 66 66 66 66 66 66 66 66 66 66 66 65 65 65 64 62 62 61 61 60 60 60 60 60 61 61 61 60 60 61 62 63 63 63 63 63 63 63 63 62 62 61 61 61 60 60 60 61 61 61 61 61 61 61 61 61 60 61 61 61 61 61 61 61 62 62 62 63 63 63 64 64
70 70 71 70 70 70 70 69 69 69 68 68 68 68 68 68 68 68 67 67 66 66 66 66 66 66 66 66 66 66 66 66 66 66 66 66 66 66 66 66 66 65 65 65 65 64 61 61 60 60 60 60 60 60 60 61 61 60 59 60 61 63 63 63 63 63 63 63 63 63 63 62 61 61 60 60 60 61 61 61 61 61 61 60 60 60 60 60 60 61 61 62 62 62 62 62 62 62 62 62 62 63 63
70 70 70 70 70 70 69 69 69 68 68 68 68 67 67 67 67 67 67 66 66 66 66 66 66 65 65 65 66 66 66 66 66 66 66 66 66 66 66 66 66 66 65 65 64 63 61 58 58 60 60 60 60 60 60 61 61 60 60 61 63 64 63 63 62 62 62 63 63 63 63 62 61 61 60 60 61 61 62 61 61 61 61 60 60 59 59 60 61 61 63 63 63 63 63 63 63 63 63 62 62 62 62
70 70 70 70 70 70 69 69 69 68 68 68 67 67 67 67 67 67 66 66 66 66 66 66 66 65 65 65 65 65 65 65 65 65 65 66 66 66 66 66 66 65 65 65 64 63 62 59 59 59 60 61 60 60 60 60 60 61 61 61 62 63 63 63 62 62 62 62 63 63 63 62 61 61 61 61 61 62 62 62 61 61 61 61 60 60 60 61 61 62 63 63 64 64 64 64 64 64 63 62 62 61 61
70 70 70 70 70 70 70 69 69 68 68 67 67 67 67 67 67 66 66 66 66 66 66 66 66 65 65 65 65 65 65 65 65 65 65 65 65 66 66 66 66 65 65 65 64 64 62 60 59 59 60 61 61 61 61 60 60 60 60 61 62 63 63 63 63 62 62 62 63 63 63 63 62 61 61 61 62 62 62 62 62 61 61 61 61 61 61 62 63 63 63 63 63 64 64 64 65 65 64 63 62 62 62
70 70 70 70 70 70 70 69 69 68 68 68 68 67 67 67 67 66 66 66 66 66 66 66 66 66 66 66 66 65 65 65 65 64 64 65 65 66 66 66 65 65 65 65 64 64 63 60 59 59 60 60 61 61 61 60 60 60 60 62 63 63 63 63 63 63 62 62 62 63 63 62 62 61 61 61 62 62 62 62 62 62 62 62 62 62 62 63 63 63 63 63 63 63 63 64 65 65 64 63 63 62 62
70 70 70 70 70 70 70 69 69 69 68 68 68 68 68 67 67 66 66 66 66 66 66 66 66 66 66 66 66 66 65 65 65 64 65 65 65 65 66 66 65 65 65 65 65 64 63 60 59 59 60 60 61 61 61 61 61 61 61 63 64 64 63 63 63 63 63 62 62 62 63 62 62 61 61 61 62 62 62 62 62 62 62 62 62 62 63 63 63 63 63 63 63 63 63 64 64 64 63 63 63 63 63
70 70 70 70 70 70 70 69 69 69 69 68 68 68 68 68 67 67 67 67 67 67 66 66 66 66 66 66 66 66 65 65 65 65 65 65 65 65 66 66 65 65 65 65 64 64 63 60 59 59 60 60 61 61 60 60 60 60 60 64 65 64 64 64 64 64 63 63 62 62 62 62 62 61 61 61 61 62 62 62 62 62 62 62 62 62 63 63 63 62 62 63 63 63 63 63 63 63 63 62 62 62 63
70 70 70 70 70 70 70 70 69 69 69 69 69 69 68 68 68 68 67 67 67 67 67 67 67 66 66 66 66 66 66 66 65 65 65 65 65 65 66 66 65 65 64 64 64 63 61 59 59 59 60 60 60 60 61 61 60 60 61 65 65 64 64 64 64 64 64 63 63 62 62 62 62 61 61 61 61 61 62 62 62 62 62 62 62 62 62 62 62 62 62 62 62 62 62 62 62 62 62 62 62 63 63
70 70 69 69 70 70 70 70 70 69 69 69 69 69 69 69 69 68 68 68 68 67 67 67 67 67 66 66 66 66 66 66 66 66 66 66 66 66 66 66 65 65 64 63 61 60 59 59 59 59 60 60 60 61 62 61 61 61 63 66 66 65 64 64 65 64 64 63 63 63 62 62 62 61 61 61 61 61 62 62 62 62 62 62 62 62 62 62 62 62 62 62 62 62 62 62 62 62 62 62 62 62 62
69 69 68 69 69 70 70 70 70 69 69 70 70 69 69 69 69 69 68 68 68 68 67 67 67 67 67 68 68 68 68 68 67 67 66 66 66 66 66 66 66 65 64 61 59 58 58 58 58 59 60 60 60 61 62 62 61 62 65 66 66 65 65 65 65 65 65 64 64 63 63 62 62 62 61 61 61 61 61 62 62 62 62 61 61 61 61 61 61 61 61 61 61 61 61 61 61 61 61 61 61 62 62
67 67 67 68 69 69 69 70 69 69 69 69 70 69 69 69 69 69 68 68 68 68 68 67 67 67 68 68 69 69 68 68 68 67 67 67 67 67 67 66 66 64 62 59 57 57 57 57 58 59 60 60 60 61 62 61 62 63 66 66 66 66 65 66 66 66 65 65 64 63 63 63 62 62 62 61 61 61 61 61 62 62 62 61 61 61 61 61 61 61 61 61 61 61 61 61 61 61 61 61 61 61 61
66 66 67 68 69 69 69 69 69 69 69 69 69 69 69 69 69 69 68 68 68 68 68 68 68 68 68 69 69 68 65 65 65 66 66 66 67 67 67 66 65 62 59 57 57 57 56 57 57 58 59 59 60 61 62 61 62 65 66 66 66 66 66 66 66 66 65 65 64 64 63 63 63 63 62 62 61 61 61 61 61 62 62 62 61 61 61 61 60 60 60 60 60 60 60 60 60 60 60 60 60 60 61
66 66 68 68 69 69 69 69 69 69 69 69 69 69 69 69 69 69 69 68 68 68 68 67 68 68 68 68 67 65 61 60 60 61 62 65 65 66 66 65 63 60 57 57 57 56 56 56 57 58 59 59 60 61 62 62 63 65 66 66 66 66 66 66 66 66 65 65 64 64 64 64 63 63 63 62 62 62 62 61 61 62 62 62 62 61 61 61 60 60 60 60 60 60 60 60 60 60 60 60 60 60 60
66 67 68 68 69 69 69 69 69 69 69 69 69 69 69 68 68 69 69 68 68 68 67 67 67 68 68 68 65 61 58 57 58 58 59 61 61 62 62 61 59 57 56 56 56 55 55 55 55 57 59 59 60 61 62 63 64 66 67 67 66 66 66 66 66 65 65 65 64 64 64 64 64 63 63 63 63 62 62 62 62 61 62 62 62 62 62 61 61 61 60 60 60 60 60 60 60 59 60 60 60 60 60
66 67 68 68 68 69 69 69 69 69 69 69 69 68 68 68 68 68 68 68 68 68 67 67 67 67 67 65 61 58 57 57 57 58 58 58 58 58 58 58 57 56 56 55 55 55 54 54 54 55 57 59 60 61 62 63 65 66 67 67 66 66 66 66 66 65 65 65 64 64 64 64 64 64 63 63 63 63 63 62 62 62 61 62 62 62 62 62 61 61 61 61 60 60 60 60 60 60 60 60 60 60 60
66 67 67 68 68 68 68 68 68 69 69 69 68 67 66 67 67 68 68 67 67 67 67 67 65 63 63 61 58 57 56 56 57 57 58 57 57 57 57 57 57 57 56 55 54 54 54 53 52 53 55 58 60 61 62 63 65 66 67 67 67 66 66 66 66 65 65 65 64 64 65 65 64 64 64 63 63 63 63 63 63 62 62 62 62 62 62 62 62 61 61 61 61 61 60 60 60 60 60 60 60 60 60
66 66 66 67 67 67 67 66 67 67 67 68 66 64 63 64 65 66 66 64 64 65 66 65 62 59 60 59 58 57 57 57 57 57 57 57 57 56 57 57 57 57 56 55 54 54 53 52 51 51 52 56 58 61 62 64 65 66 67 67 67 66 66 66 66 65 65 65 64 64 65 65 65 65 64 64 64 63 63 63 63 63 62 62 62 62 62 62 62 62 62 61 61 61 61 61 61 61 60 60 60 60 60
66 66 66 66 66 66 66 66 66 66 66 67 66 63 62 62 63 63 64 61 61 61 62 61 60 59 58 58 57 57 57 57 57 57 57 57 57 56 56 56 56 55 55 54 54 53 52 51 49 49 50 53 57 59 61 63 65 66 67 67 67 66 66 66 66 66 65 65 65 64 64 65 65 65 64 64 64 64 64 64 63 63 63 63 62 62 62 62 62 62 62 62 62 61 61 61 61 61 61 61 60 60 60
66 66 66 66 66 66 66 66 66 65 64 65 65 64 62 62 61 61 61 61 60 60 60 59 59 59 58 57 57 57 56 57 57 57 57 56 56 56 55 55 54 54 53 53 52 52 51 50 49 48 48 52 55 58 60 62 64 66 67 67 67 67 66 66 66 66 65 65 65 64 64 64 64 64 64 64 64 64 64 64 64 64 63 63 63 63 62 62 62 62 62 62 62 62 61 61 61 61 61 61 61 60 60
66 66 66 66 66 66 66 66 66 66 64 64 64 64 63 61 61 61 61 61 60 60 59 59 59 59 58 57 57 57 56 56 56 56 56 56 55 55 54 54 53 53 52 52 52 51 50 49 48 48 47 50 53 56 59 61 63 65 66 67 67 67 66 66 66 66 66 65 65 65 64 64 64 64 64 64 64 65 64 64 64 64 64 64 63 63 63 63 62 62 62 63 62 62 62 62 61 61 61 61 61 61 61
66 66 66 66 66 66 66 66 66 66 65 64 64 64 62 61 61 61 61 61 61 61 61 60 60 59 59 58 58 57 57 56 56 55 55 55 55 54 54 53 53 52 52 51 51 50 50 49 48 48 47 48 51 54 57 60 62 64 65 66 67 67 67 66 66 66 66 66 65 65 65 64 64 64 64 64 65 65 65 65 64 64 64 64 64 64 63 63 63 63 63 63 63 62 62 62 62 62 61 61 61 61 61
66 66 66 66 66 66 66 66 66 66 65 64 63 63 62 61 61 61 61 61 61 61 61 60 60 59 59 59 58 58 57 57 57 56 55 55 54 54 53 53 52 52 52 51 51 50 49 49 48 48 47 48 50 53 56 59 61 62 64 66 67 67 67 67 66 66 66 66 66 65 65 65 64 64 64 64 65 65 65 65 65 65 65 65 64 64 64 64 63 63 63 63 63 63 63 62 62 62 62 61 61 61 61
66 66 66 66 66 66 66 66 66 66 65 65 64 63 62 61 61 62 62 62 61 61 61 60 60 60 60 60 59 59 58 58 57 57 56 55 54 53 53 52 52 52 52 51 51 50 49 48 48 48 47 48 50 52 54 57 60 61 63 65 66 67 67 67 66 66 66 66 66 65 65 65 65 64 64 64 65 65 65 65 65 65 65 65 65 64 64 64 64 63 63 63 63 63 63 63 62 62 62 62 62 61 61
66 66 66 66 66 66 66 66 66 66 65 65 65 64 63 62 62 62 62 62 62 61 62 61 61 61 61 61 61 60 59 58 58 57 56 56 55 54 53 52 52 51 51 51 51 51 50 49 48 48 47 48 49 51 53 56 58 61 61 63 65 66 67 67 67 66 66 66 66 66 65 65 65 65 64 65 65 65 65 65 65 65 65 65 65 65 64 64 64 64 64 63 63 63 63 63 63 63 62 62 62 62 61
65 66 66 66 66 66 66 66 66 65 65 65 65 64 64 63 63 62 62 62 62 62 62 61 61 60 59 60 60 60 61 60 59 57 56 56 55 54 53 52 52 51 51 51 51 51 50 50 49 48 48 47 48 49 52 54 57 59 61 62 64 65 66 66 66 66 66 66 66 66 66 65 65 65 65 65 65 65 65 65 65 65 65 65 65 65 65 64 64 64 64 64 64 64 63 63 63 63 63 63 62 62 62
65 65 65 65 65 65 65 65 65 65 65 65 65 64 64 64 63 63 63 62 62 62 61 61 60 60 59 59 59 60 60 60 59 58 57 56 55 54 53 52 52 51 51 51 51 51 51 50 49 48 48 48 48 48 50 52 54 57 60 61 62 64 65 66 66 66 66 66 66 66 66 65 65 65 65 65 65 65 65 65 65 65 65 65 65 65 65 65 65 65 64 64 64 64 64 64 63 63 63 63 63 62 62
65 65 65 65 65 65 65 65 65 65 65 65 65 64 64 64 63 63 62 62 62 62 61 61 61 61 61 60 60 60 59 59 59 58 57 56 55 55 54 53 52 52 52 52 51 51 51 51 50 49 48 48 48 48 49 50 52 54 57 60 61 62 63 64 65 65 66 66 66 66 65 65 65 65 65 65 65 65 65 65 65 65 65 65 65 65 65 65 65 65 65 65 64 64 64 64 64 64 63 63 63 63 63
64 64 64 64 64 64 64 64 64 64 64 64 64 64 64 63 63 63 62 62 61 61 61 61 61 61 61 60 60 59 58 58 58 57 57 56 55 55 54 53 52 52 52 52 51 51 51 51 50 49 49 48 48 48 48 49 50 51 54 57 59 61 62 63 63 64 64 65 65 65 65 65 65 65 65 65 65 65 65 65 65 65 65 65 65 65 65 65 65 65 65 65 65 65 64 64 64 64 64 63 63 63 63
64 64 64 64 64 64 64 64 64 64 64 64 64 63 63 63 63 63 62 61 61 60 60 60 60 60 60 59 59 58 57 56 56 56 56 55 55 54 53 52 52 52 52 51 51 51 51 50 50 50 49 49 48 48 48 48 49 50 51 53 56 58 61 61 62 62 63 63 64 64 64 65 65 65 65 65 65 65 65 65 65 65 65 65 65 65 65 65 65 65 65 65 65 65 65 65 65 65 64 64 64 64 63
63 63 63 63 63 63 63 63 63 63 63 63 63 62 62 62 62 61 61 60 60 59 58 58 58 58 57 57 57 56 55 53 53 53 54 53 53 52 52 51 51 51 51 50 50 50 50 50 50 50 50 49 49 48 48 48 49 49 50 52 54 56 59 60 61 61 61 62 62 63 63 64 64 65 65 65 65 65 65 65 65 65 65 65 65 65 65 65 65 65 65 65 65 65 65 65 65 65 65 64 64 64 64
62 62 62 62 62 62 62 62 62 62 62 62 62 62 61 61 61 61 61 61 60 59 57 57 57 56 56 55 55 54 53 52 51 51 52 52 52 51 51 51 51 50 50 50 49 49 49 49 49 50 50 50 50 49 49 49 49 49 50 51 52 54 56 57 59 60 61 61 61 62 63 63 64 65 65 65 65 65 65 65 65 65 65 65 65 65 65 65 65 65 65 65 65 65 65 65 65 65 65 65 65 65 64
62 61 61 61 61 61 61 61 62 61 61 61 61 61 61 61 61 61 61 60 59 58 57 55 55 55 55 54 53 52 52 52 51 51 51 51 51 51 51 51 51 51 51 51 50 50 50 49 50 50 50 51 51 51 50 50 50 50 50 50 51 52 52 53 55 57 58 60 61 61 62 63 64 64 65 65 65 65 65 65 65 65 65 65 65 65 65 65 65 65 65 65 65 66 66 66 66 66 66 66 66 66 65
61 61 61 61 61 61 61 61 61 61 61 61 61 61 61 61 61 61 61 60 59 58 57 55 54 54 54 52 52 52 52 51 51 50 50 50 51 51 51 52 52 52 52 52 52 52 52 51 51 51 51 52 52 52 52 52 51 51 51 51 51 52 52 52 52 53 55 57 59 60 61 62 63 64 65 65 66 66 66 66 66 66 66 65 65 65 65 65 65 65 65 65 66 66 66 66 66 66 66 66 66 66 66
61 61 60 60 60 60 60 61 61 61 60 60 60 60 60 60 60 60 60 59 59 58 57 55 54 53 52 52 51 51 52 51 51 50 50 50 50 50 51 51 52 52 52 53 53 53 53 53 53 53 53 53 53 53 53 53 52 52 52 52 52 52 52 52 52 52 53 54 56 58 61 61 62 63 64 65 66 66 66 66 66 66 66 66 65 65 65 65 65 65 65 65 66 66 66 66 67 67 67 67 67 66 66
60 60 60 60 59 59 60 60 60 60 60 59 59 59 59 60 59 59 59 59 58 57 57 55 54 53 52 52 52 52 52 52 52 52 51 51 51 51 51 52 52 52 53 54 54 54 55 55 55 54 54 54 54 54 54 54 54 53 53 53 53 53 53 53 53 53 53 53 55 56 59 61 61 62 63 64 65 66 66 66 66 66 66 66 66 66 65 65 65 65 65 65 66 66 66 67 67 67 67 67 67 66 66
60 60 59 59 59 59 59 59 59 59 59 59 58 58 58 58 58 58 58 57 57 56 55 55 54 53 52 52 52 52 52 53 53 53 52 52 52 52 52 52 53 53 54 54 55 55 55 55 55 55 55 55 55 55 55 55 55 54 54 54 54 54 54 54 55 55 54 54 54 55 57 59 61 61 62 63 64 65 66 66 66 66 66 66 66 66 66 66 65 65 65 65 65 66 66 66 67 67 67 67 67 66 66
59 59 59 59 59 58 58 58 58 58 58 58 58 57 57 57 57 57 57 57 56 56 55 54 54 53 52 52 52 52 52 54 54 54 54 54 54 53 54 54 54 54 55 55 56 55 55 56 56 56 56 56 56 56 55 55 55 55 55 55 54 55 55 55 55 55 55 55 55 55 56 58 60 61 61 62 63 64 65 65 66 66 66 66 66 66 66 66 66 65 65 65 65 66 66 66 66 67 67 67 67 67 66
59 58 58 58 58 58 57 57 57 57 57 57 57 57 57 57 57 57 56 56 55 55 54 54 53 53 52 52 52 52 53 53 54 55 55 55 55 55 55 55 55 55 55 56 56 56 56 56 56 57 57 56 56 56 56 56 56 55 55 55 55 55 55 55 55 55 56 56 56 56 56 57 58 60 61 61 62 62 63 64 64 65 66 66 67 66 66 66 66 66 66 65 65 66 66 66 66 66 67 67 67 67 67
58 58 58 57 57 57 57 57 57 57 57 57 57 56 56 56 56 56 55 55 55 54 54 54 53 53 52 52 52 52 52 53 54 55 55 55 55 55 55 55 55 56 56 56 56 56 56 56 57 57 57 57 56 56 56 56 56 56 56 56 55 55 55 56 56 56 56 56 56 56 56 56 57 58 60 60 61 61 62 62 63 64 65 66 66 67 66 66 66 66 66 66 66 66 66 66 66 66 66 67 67 67 67
58 58 57 57 57 57 57 57 57 57 57 56 56 56 56 56 55 55 55 54 54 54 53 53 54 54 53 52 52 52 52 53 53 54 55 55 55 55 55 55 56 56 56 56 56 56 56 56 56 56 56 56 56 56 56 56 56 56 56 56 56 56 56 56 56 56 56 56 56 56 56 56 56 57 57 58 59 60 61 61 62 63 64 65 66 66 66 66 67 66 66 66 66 66 66 66 66 66 66 66 67 67 67
58 58 58 58 58 58 58 57 57 57 56 56 56 55 55 55 55 55 55 54 54 54 53 53 53 54 54 53 53 52 53 53 54 55 55 55 55 55 55 55 55 56 56 56 56 56 56 56 56 56 56 56 56 56 56 56 56 56 56 56 56 56 56 56 56 56 56 56 56 56 56 56 56 56 56 57 57 58 58 60 61 62 63 64 65 66 66 66 66 67 67 66 66 66 66 66 66 66 66 66 66 66 67
58 58 58 58 58 58 58 58 57 57 57 56 56 55 55 55 55 55 55 54 54 54 54 53 53 54 55 55 55 54 54 54 55 55 55 55 55 55 56 55 55 55 55 55 56 56 56 56 56 56 56 56 56 56 56 56 56 56 56 56 56 56 56 56 56 56 56 56 56 56 56 56 56 56 57 57 57 57 57 58 59 61 61 63 64 65 66 66 66 66 67 67 66 66 66 66 66 66 66 66 66 66 66
59 59 58 59 59 59 59 59 58 57 57 56 56 55 55 55 55 55 55 55 54 54 54 54 54 54 55 56 56 56 56 56 56 56 56 55 55 55 56 55 55 55 55 55 55 56 56 56 55 55 55 55 55 55 55 55 56 56 56 56 57 56 56 56 56 56 56 56 56 56 56 56 57 57 57 57 57 57 57 57 58 59 60 61 62 63 64 65 65 66 66 66 66 66 66 66 66 66 66 66 66 66 66
60 60 60 60 60 60 60 60 59 59 58 57 56 56 56 55 55 56 56 56 56 56 57 57 57 57 56 57 57 57 57 57 57 56 56 56 55 56 56 56 56 56 56 56 56 56 56 55 55 55 55 55 55 55 55 55 55 55 55 56 56 56 56 57 56 56 56 56 56 56 56 56 57 57 57 57 57 57 57 57 57 57 59 60 61 62 63 63 64 65 66 66 66 66 66 66 66 66 66 66 66 65 65
60 61 61 61 61 61 61 61 61 60 59 58 58 57 57 57 57 57 57 58 58 58 59 59 60 59 59 58 58 58 58 57 57 57 56 56 55 56 56 56 56 56 56 56 56 56 56 55 55 55 55 55 55 55 55 55 55 55 55 55 56 56 56 56 57 57 56 56 56 56 56 56 57 57 57 57 57 57 57 57 57 57 57 58 59 60 61 62 63 64 65 66 66 66 66 66 66 66 66 66 66 66 65
61 61 62 62 62 61 61 61 61 61 61 60 60 59 59 58 58 59 59 59 60 60 60 60 60 60 61 60 59 59 60 58 57 57 56 56 56 56 56 55 55 55 55 55 56 56 56 55 55 55 55 55 55 55 55 55 55 55 55 55 55 55 56 56 57 57 57 56 56 56 56 56 57 57 57 57 57 57 57 57 57 57 57 57 58 58 59 60 61 63 64 65 65 66 66 66 66 66 66 66 66 66 66
61 62 62 62 62 62 62 61 61 61 61 61 61 61 61 60 60 61 61 60 60 60 60 60 60 60 61 61 61 61 61 60 58 57 57 57 57 57 56 56 55 53 51 51 52 54 55 55 55 55 55 55 55 55 55 55 55 55 54 54 55 55 55 56 56 57 57 56 56 56 56 56 56 57 57 57 57 57 57 57 57 57 57 57 57 57 58 58 59 60 61 63 64 65 65 65 66 66 66 66 66 66 66
62 62 62 62 62 62 62 61 61 61 62 61 61 61 61 61 61 61 61 61 61 61 61 61 61 60 60 60 61 61 61 61 60 59 59 58 58 57 57 57 55 53 51 50 50 50 52 52 53 54 55 54 54 54 54 54 54 54 54 54 54 55 55 56 57 57 57 57 56 56 56 56 56 56 57 57 57 57 57 57 57 57 57 57 57 57 58 57 57 57 58 60 62 64 64 65 65 65 65 66 66 66 66
62 62 62 62 62 62 62 62 61 61 62 61 61 61 61 61 61 61 61 61 61 61 61 61 61 60 60 60 60 60 61 61 61 61 61 61 60 59 57 55 54 54 55 53 51 49 48 50 51 52 53 53 53 53 53 53 53 53 53 53 53 54 55 56 57 57 57 57 57 56 56 56 56 56 56 57 57 57 57 57 57 57 57 57 57 58 58 57 57 56 57 57 58 60 62 64 65 65 65 65 65 65 65
62 62 62 62 62 62 62 62 61 61 61 61 61 61 61 61 61 61 61 61 61 61 61 61 61 60 60 60 60 59 59 60 61 61 61 61 61 60 58 57 56 55 55 53 52 49 48 50 52 53 53 54 54 54 53 53 53 53 54 54 54 55 56 57 57 57 57 57 57 57 57 56 57 57 57 57 57 57 57 57 57 57 57 57 57 57 57 57 57 57 57 57 57 57 58 62 64 64 64 65 65 65 65
62 62 62 62 62 62 62 62 61 61 61 61 61 61 61 61 61 61 61 61 61 60 60 61 60 60 60 60 60 59 59 59 60 60 61 61 61 61 61 59 57 55 52 50 48 48 48 52 54 54 54 54 55 55 55 56 56 56 56 56 56 56 57 57 57 57 57 57 57 57 57 57 57 58 58 58 58 57 57 57 57 57 57 57 57 57 57 57 57 57 57 58 57 57 57 60 62 63 64 64 64 64 65
62 62 62 62 61 61 62 62 61 61 61 61 61 61 61 61 61 61 60 60 60 60 60 60 60 60 60 60 60 60 59 60 60 60 60 60 61 61 61 61 59 58 56 53 52 52 53 56 56 54 52 54 55 55 56 56 56 56 57 56 56 56 57 57 57 57 57 57 57 57 57 58 59 59 59 59 58 58 57 57 57 57 57 57 57 57 57 57 57 57 57 57 57 57 57 59 61 62 63 64 64 64 64
63 62 62 62 62 61 61 62 61 61 61 61 61 61 61 61 61 61 61 60 60 60 60 61 61 61 61 61 61 61 61 60 60 60 60 60 60 61 61 61 61 61 60 59 58 58 58 58 57 55 54 54 55 56 57 57 57 57 56 56 56 56 57 57 57 57 57 57 58 58 57 58 58 59 59 59 59 59 58 58 58 58 58 58 57 57 57 57 57 57 57 57 57 57 57 59 61 62 63 63 63 64 64
62 62 62 62 62 61 61 61 61 61 61 61 61 61 62 61 61 61 61 61 61 61 61 61 61 61 61 61 61 61 61 60 60 60 60 60 60 60 61 61 61 61 61 61 61 61 60 58 57 57 56 55 55 55 57 57 57 57 57 57 57 57 57 57 58 58 58 58 58 58 59 58 58 59 59 59 59 59 59 59 59 59 59 58 58 57 57 57 56 56 56 56 56 57 58 59 61 61 62 63 63 63 64
61 61 61 61 61 61 61 61 61 61 61 61 62 62 62 62 62 62 62 62 62 62 62 62 62 61 62 62 61 61 61 60 60 60 61 60 60 59 60 60 61 61 61 61 61 61 61 60 59 58 57 56 55 55 55 57 57 57 57 57 57 58 58 59 59 59 59 59 59 59 59 59 59 58 58 58 59 59 60 59 58 59 59 59 58 57 57 57 57 56 56 56 57 57 58 59 60 61 62 62 63 63 63
61 61 61 61 61 61 61 62 62 62 62 62 63 63 63 62 62 62 62 62 62 62 62 62 62 62 62 62 62 61 61 61 60 60 61 60 59 59 59 60 60 60 60 60 61 61 61 61 60 60 58 57 56 55 55 56 57 57 57 57 57 58 58 59 60 60 60 59 59 59 60 60 59 59 59 59 59 59 60 59 59 58 59 58 58 57 57 57 56 56 56 57 57 57 57 58 60 61 61 62 63 63 63